カタログに戻る

LEMUR 2 JK0903EM1407

運用中科学SSO
NORAD 58336·PAYLOAD·🇺🇸 United States

打ち上げ Nov 11, 2023 から Vandenberg Space Force Base

Loading…

次のパス (今後24時間)

TLE

最新Source: Space-Track

元期: Sep 14, 2026, 04:57 UTC

1 58336U 23174CJ  26257.20688292  .00023428  00000-0  33712-3 0  9999
2 58336  97.3899 350.4601 0004844 143.5420 216.6166 15.56048478159551

AllMySatでLEMUR 2 JK0903EM1407をリアルタイム追跡

Download on the App Store